Location: Arpaise
(41.0333°N, 14.7333°E)
Time: 08:07:42
(UTC+00:00)

OAO 2 Rocket - Pass Details

Date: 05 July 2020
Orbit: 676 x 746 km, 35.0° (Epoch: 05 August)

Event Time Altitude Azimuth Distance (km) Brightness Sun altitude
Rises 19:58:32 0° 249° (WSW) 3,156 7.0 -12.9°
Reaches altitude 10° 20:01:04 10° 242° (WSW) 2,241 6.1 -13.2°
Maximum altitude 20:06:01 42° 173° (S) 1,058 3.9 -13.9°
Enters shadow 20:09:31 18° 111° (ESE) 1,755 4.8 -14.3°
